Location: *
(45.1333°S, 169.6333°W)
Time: 21:20:42
(UTC+00:00)

BREEZE M DEB (TANK) - Pass Details

Date: 26 May 2022
Orbit: 277 x 14407 km, 49.5° (Epoch: 30 June)

Event Time Altitude Azimuth Distance (km) Brightness Sun altitude
Rises 05:28:44 0° 304° (WNW) 1,996 7.0 -17.1°
Reaches altitude 10° 05:30:23 10° 307° (NW) 1,127 5.4 -17.3°
Enters shadow 05:32:20 61° 18° (NNE) 374 1.9 -17.7°
